| time (UTC) | temp F | wind direction | speed MPH | gust MPH | rain 1hr in | rain 24hr in | rain mn in | humidity % | barometer mb |
| 20260505004356 | 67 | 229 | 0.0 | 2.0 | 0.00 | 0.05 | 0.05 | 64 | 999.6 |
| 20260505003819 | 67 | 17 | 0.0 | 1.0 | 0.00 | 0.05 | 0.05 | 64 | 999.3 |
| 20260505003322 | 67 | 263 | 0.0 | 2.0 | 0.00 | 0.05 | 0.05 | 63 | 999.1 |
| 20260505002821 | 67 | 302 | 0.0 | 5.0 | 0.02 | 0.05 | 0.05 | 63 | 998.9 |
| 20260505002323 | 67 | 176 | 0.0 | 5.0 | 0.02 | 0.05 | 0.05 | 63 | 998.8 |
| 20260505001827 | 67 | 134 | 0.0 | 3.0 | 0.02 | 0.05 | 0.05 | 62 | 998.8 |
| 20260505001331 | 67 | 97 | 0.0 | 3.0 | 0.02 | 0.05 | 0.05 | 61 | 998.4 |
| 20260505000833 | 66 | 118 | 1.0 | 3.0 | 0.02 | 0.05 | 0.05 | 61 | 998.2 |
| 20260505000335 | 66 | 171 | 0.0 | 2.0 | 0.02 | 0.05 | 0.05 | 63 | 998.2 |
| 20260504235857 | 66 | 155 | 0.0 | 2.0 | 0.02 | 0.05 | 0.05 | 63 | 998.1 |
| 20260504235319 | 66 | 169 | 0.0 | 2.0 | 0.02 | 0.05 | 0.05 | 65 | 998.1 |
| 20260504234823 | 65 | 126 | 0.0 | 2.0 | 0.02 | 0.05 | 0.05 | 66 | 998.0 |
| 20260504234327 | 65 | 155 | 0.0 | 2.0 | 0.02 | 0.05 | 0.05 | 68 | 998.0 |
| 20260504233831 | 64 | 170 | 0.0 | 2.0 | 0.02 | 0.05 | 0.05 | 71 | 998.0 |
| 20260504233335 | 64 | 112 | 1.0 | 2.0 | 0.02 | 0.05 | 0.05 | 73 | 998.1 |
| 20260504232818 | 63 | 123 | 0.0 | 2.0 | 0.00 | 0.03 | 0.03 | 78 | 998.4 |
| 20260504232321 | 63 | 142 | 1.0 | 2.0 | 0.00 | 0.03 | 0.03 | 77 | 998.8 |
| 20260504231820 | 63 | 15 | 0.0 | 3.0 | 0.01 | 0.03 | 0.03 | 80 | 998.4 |
| 20260504231324 | 63 | 157 | 1.0 | 3.0 | 0.03 | 0.03 | 0.03 | 80 | 998.2 |
| 20260504230826 | 63 | 219 | 0.0 | 2.0 | 0.03 | 0.03 | 0.03 | 79 | 998.3 |
| 20260504230331 | 63 | 214 | 1.0 | 2.0 | 0.03 | 0.03 | 0.03 | 77 | 998.3 |
| 20260504225834 | 64 | 292 | 0.0 | 1.0 | 0.03 | 0.03 | 0.03 | 79 | 998.0 |
| 20260504225337 | 64 | 292 | 0.0 | 1.0 | 0.03 | 0.03 | 0.03 | 76 | 998.0 |
| 20260504224820 | 64 | 292 | 0.0 | 5.0 | 0.03 | 0.03 | 0.03 | 74 | 998.2 |
| 20260504224323 | 64 | 312 | 1.0 | 6.0 | 0.03 | 0.03 | 0.03 | 71 | 998.4 |
| 20260504223828 | 65 | 299 | 2.0 | 6.0 | 0.03 | 0.03 | 0.03 | 69 | 998.7 |
| 20260504223332 | 65 | 279 | 3.0 | 6.0 | 0.03 | 0.03 | 0.03 | 70 | 999.1 |
| 20260504222856 | 66 | 286 | 2.0 | 7.0 | 0.03 | 0.03 | 0.03 | 70 | 998.9 |
| 20260504222317 | 67 | 282 | 2.0 | 7.0 | 0.03 | 0.03 | 0.03 | 66 | 999.0 |
| 20260504221822 | 69 | 273 | 1.0 | 8.0 | 0.02 | 0.02 | 0.02 | 66 | 998.9 |
| 20260504221343 | 71 | 296 | 3.0 | 8.0 | 0.00 | 0.00 | 0.00 | 61 | 998.4 |
| 20260504220823 | 72 | 103 | 0.0 | 2.0 | 0.00 | 0.00 | 0.00 | 64 | 997.9 |
| 20260504220327 | 73 | 103 | 0.0 | 2.0 | 0.00 | 0.00 | 0.00 | 61 | 997.8 |
| 20260504215830 | 74 | 5 | 0.0 | 0.0 | 0.00 | 0.00 | 0.00 | 59 | 997.8 |
| 20260504215334 | 74 | 9 | 0.0 | 0.0 | 0.00 | 0.00 | 0.00 | 57 | 997.8 |
| 20260504214836 | 75 | 9 | 0.0 | 4.0 | 0.00 | 0.00 | 0.00 | 53 | 997.8 |
| 20260504214321 | 76 | 5 | 0.0 | 6.0 | 0.00 | 0.00 | 0.00 | 51 | 997.9 |
| 20260504213823 | 77 | 244 | 1.0 | 4.0 | 0.00 | 0.00 | 0.00 | 41 | 998.5 |
| 20260504213329 | 77 | 355 | 0.0 | 3.0 | 0.00 | 0.00 | 0.00 | 39 | 997.9 |
| 20260504212854 | 78 | 306 | 0.0 | 4.0 | 0.00 | 0.00 | 0.00 | 37 | 997.9 |
| 20260504212335 | 78 | 306 | 1.0 | 4.0 | 0.00 | 0.00 | 0.00 | 38 | 998.0 |
| 20260504211839 | 79 | 315 | 0.0 | 11.0 | 0.00 | 0.00 | 0.00 | 35 | 998.1 |
| 20260504211336 | 80 | 292 | 2.0 | 11.0 | 0.00 | 0.00 | 0.00 | 34 | 998.1 |
| 20260504210818 | 81 | 265 | 1.0 | 6.0 | 0.00 | 0.00 | 0.00 | 32 | 998.0 |
| 20260504210322 | 81 | 297 | 1.0 | 6.0 | 0.00 | 0.00 | 0.00 | 32 | 998.1 |
| 20260504205847 | 81 | 252 | 2.0 | 5.0 | 0.00 | 0.00 | 0.00 | 30 | 998.1 |
| 20260504205328 | 81 | 258 | 1.0 | 6.0 | 0.00 | 0.00 | 0.00 | 31 | 998.2 |
| 20260504204833 | 81 | 291 | 2.0 | 6.0 | 0.00 | 0.00 | 0.00 | 31 | 998.2 |
| 20260504204357 | 81 | 207 | 2.0 | 5.0 | 0.00 | 0.00 | 0.00 | 32 | 998.2 |
| 20260504203818 | 81 | 259 | 1.0 | 5.0 | 0.00 | 0.00 | 0.00 | 29 | 998.3 |
| 20260504203321 | 82 | 283 | 1.0 | 5.0 | 0.00 | 0.00 | 0.00 | 35 | 998.3 |
| 20260504202824 | 82 | 273 | 1.0 | 8.0 | 0.00 | 0.00 | 0.00 | 30 | 998.4 |
| 20260504202320 | 83 | 260 | 3.0 | 8.0 | 0.00 | 0.00 | 0.00 | 28 | 998.6 |
| 20260504201824 | 83 | 314 | 2.0 | 4.0 | 0.00 | 0.00 | 0.00 | 28 | 998.6 |
| 20260504201328 | 82 | 279 | 1.0 | 6.0 | 0.00 | 0.00 | 0.00 | 30 | 998.5 |
| 20260504200832 | 81 | 262 | 2.0 | 6.0 | 0.00 | 0.00 | 0.00 | 33 | 998.6 |
| 20260504200334 | 81 | 221 | 2.0 | 5.0 | 0.00 | 0.00 | 0.00 | 32 | 998.7 |
| 20260504195836 | 81 | 5 | 1.0 | 6.0 | 0.00 | 0.00 | 0.00 | 33 | 999.0 |
| 20260504195317 | 81 | 186 | 2.0 | 6.0 | 0.00 | 0.00 | 0.00 | 32 | 999.1 |
| 20260504194843 | 81 | 213 | 0.0 | 6.0 | 0.00 | 0.00 | 0.00 | 34 | 999.0 |
| 20260504194325 | 81 | 248 | 2.0 | 4.0 | 0.00 | 0.00 | 0.00 | 31 | 999.0 |
| 20260504193829 | 81 | 175 | 0.0 | 4.0 | 0.00 | 0.00 | 0.00 | 33 | 999.0 |
| 20260504193331 | 82 | 297 | 1.0 | 8.0 | 0.00 | 0.00 | 0.00 | 33 | 999.1 |
| 20260504192834 | 83 | 228 | 3.0 | 8.0 | 0.00 | 0.00 | 0.00 | 29 | 999.1 |
| 20260504192337 | 83 | 178 | 2.0 | 11.0 | 0.00 | 0.00 | 0.00 | 29 | 998.9 |
| 20260504191830 | 83 | 271 | 1.0 | 11.0 | 0.00 | 0.00 | 0.00 | 33 | 999.1 |
| 20260504191334 | 83 | 36 | 0.0 | 0.0 | 0.00 | 0.00 | 0.00 | 31 | 999.1 |
| 20260504190833 | 83 | 5 | 0.0 | 0.0 | 0.00 | 0.00 | 0.00 | 32 | 999.1 |
| 20260504190336 | 83 | 302 | 0.0 | 0.0 | 0.00 | 0.00 | 0.00 | 30 | 999.3 |
| 20260504185821 | 83 | 282 | 0.0 | 0.0 | 0.00 | 0.00 | 0.00 | 31 | 999.3 |
| 20260504185324 | 83 | 270 | 0.0 | 0.0 | 0.00 | 0.00 | 0.00 | 32 | 999.5 |
| 20260504184849 | 83 | 130 | 0.0 | 0.0 | 0.00 | 0.00 | 0.00 | 32 | 999.5 |
| 20260504184351 | 83 | 232 | 0.0 | 0.0 | 0.00 | 0.00 | 0.00 | 30 | 999.5 |
| 20260504183836 | 82 | 310 | 0.0 | 0.0 | 0.00 | 0.00 | 0.00 | 31 | 999.6 |
| 20260504183318 | 82 | 340 | 0.0 | 0.0 | 0.00 | 0.00 | 0.00 | 29 | 999.5 |
| 20260504182842 | 82 | 331 | 0.0 | 0.0 | 0.00 | 0.00 | 0.00 | 35 | 999.5 |
| 20260504182324 | 82 | 250 | 0.0 | 0.0 | 0.00 | 0.00 | 0.00 | 34 | 999.5 |
| 20260504181823 | 82 | 295 | 0.0 | 0.0 | 0.00 | 0.00 | 0.00 | 33 | 999.5 |
| 20260504181327 | 82 | 281 | 0.0 | 0.0 | 0.00 | 0.00 | 0.00 | 34 | 999.5 |
| 20260504180852 | 82 | 219 | 0.0 | 0.0 | 0.00 | 0.00 | 0.00 | 36 | 999.4 |
| 20260504180353 | 82 | 5 | 0.0 | 0.0 | 0.00 | 0.00 | 0.00 | 36 | 999.4 |
| 20260504175852 | 82 | 304 | 0.0 | 0.0 | 0.00 | 0.00 | 0.00 | 36 | 999.5 |
| 20260504175354 | 82 | 273 | 0.0 | 0.0 | 0.00 | 0.00 | 0.00 | 35 | 999.6 |
| 20260504174836 | 82 | 243 | 0.0 | 0.0 | 0.00 | 0.00 | 0.00 | 33 | 999.6 |
| 20260504174316 | 82 | 330 | 0.0 | 0.0 | 0.00 | 0.00 | 0.00 | 33 | 999.6 |
| 20260504173837 | 82 | 74 | 0.0 | 0.0 | 0.00 | 0.00 | 0.00 | 35 | 999.7 |
| 20260504173320 | 82 | 119 | 0.0 | 0.0 | 0.00 | 0.00 | 0.00 | 36 | 999.6 |
| 20260504172818 | 81 | 19 | 0.0 | 0.0 | 0.00 | 0.00 | 0.00 | 36 | 999.7 |
| 20260504172319 | 81 | 218 | 0.0 | 0.0 | 0.00 | 0.00 | 0.00 | 36 | 999.6 |
| 20260504171821 | 81 | 244 | 0.0 | 0.0 | 0.00 | 0.00 | 0.00 | 39 | 999.7 |
| 20260504171324 | 81 | 110 | 0.0 | 0.0 | 0.00 | 0.00 | 0.00 | 37 | 999.9 |
| 20260504170827 | 80 | 267 | 0.0 | 0.0 | 0.00 | 0.00 | 0.00 | 38 | 999.9 |
| 20260504170329 | 80 | 177 | 0.0 | 0.0 | 0.00 | 0.00 | 0.00 | 39 | 999.9 |
| 20260504160340 | 77 | 169 | 0.0 | 0.0 | 0.00 | 0.00 | 0.00 | 42 | 1000.8 |
| 20260504150827 | 73 | 198 | 0.0 | 0.0 | 0.00 | 0.00 | 0.00 | 47 | 1001.3 |
| 20260504150330 | 72 | 168 | 0.0 | 0.0 | 0.00 | 0.00 | 0.00 | 49 | 1001.3 |
| 20260504140817 | 67 | 35 | 0.0 | 0.0 | 0.00 | 0.00 | 0.00 | 54 | 1002.1 |
| 20260504140320 | 66 | 178 | 0.0 | 0.0 | 0.00 | 0.00 | 0.00 | 53 | 1002.1 |
| 20260504130328 | 58 | 245 | 0.0 | 0.0 | 0.00 | 0.00 | 0.00 | 69 | 1003.1 |
| 20260504110316 | 47 | 360 | 0.0 | 0.0 | 0.00 | 0.00 | 0.00 | 82 | 1003.1 |
| 20260504100350 | 44 | 360 | 0.0 | 0.0 | 0.00 | 0.00 | 0.00 | 86 | 1003.6 |
| 20260504081824 | 46 | 360 | 0.0 | 0.0 | 0.00 | 0.00 | 0.00 | 83 | 1004.6 |
| 20260504081326 | 46 | 360 | 0.0 | 0.0 | 0.00 | 0.00 | 0.00 | 83 | 1004.5 |
| 20260504080826 | 46 | 360 | 0.0 | 0.0 | 0.00 | 0.00 | 0.00 | 83 | 1004.6 |
| 20260504080329 | 47 | 360 | 0.0 | 0.0 | 0.00 | 0.00 | 0.00 | 82 | 1004.6 |
| 20260504070333 | 49 | 360 | 0.0 | 0.0 | 0.00 | 0.00 | 0.00 | 76 | 1005.2 |
| 20260504050322 | 58 | 145 | 0.0 | 0.0 | 0.00 | 0.00 | 0.00 | 59 | 1006.2 |
| 20260504045820 | 58 | 220 | 0.0 | 0.0 | 0.00 | 0.00 | 0.00 | 59 | 1006.2 |
| 20260504045323 | 58 | 220 | 0.0 | 0.0 | 0.00 | 0.00 | 0.00 | 59 | 1006.2 |
| 20260504044828 | 58 | 138 | 0.0 | 0.0 | 0.00 | 0.00 | 0.00 | 57 | 1006.3 |
| 20260504044333 | 59 | 221 | 0.0 | 0.0 | 0.00 | 0.00 | 0.00 | 57 | 1006.2 |
| 20260504043856 | 59 | 37 | 0.0 | 0.0 | 0.00 | 0.00 | 0.00 | 57 | 1006.2 |
| 20260504043339 | 59 | 146 | 0.0 | 0.0 | 0.00 | 0.00 | 0.00 | 56 | 1006.3 |
| 20260504042822 | 59 | 146 | 0.0 | 0.0 | 0.00 | 0.00 | 0.00 | 56 | 1006.3 |
| 20260504042325 | 59 | 278 | 0.0 | 0.0 | 0.00 | 0.00 | 0.00 | 56 | 1006.3 |
| 20260504041824 | 60 | 171 | 0.0 | 0.0 | 0.00 | 0.00 | 0.00 | 55 | 1006.3 |
| 20260504041327 | 60 | 171 | 0.0 | 0.0 | 0.00 | 0.00 | 0.00 | 55 | 1006.3 |
| 20260504040852 | 60 | 225 | 0.0 | 0.0 | 0.00 | 0.00 | 0.00 | 54 | 1006.3 |
| 20260504040335 | 60 | 159 | 0.0 | 0.0 | 0.00 | 0.00 | 0.00 | 54 | 1006.3 |
| 20260504035818 | 60 | 234 | 0.0 | 0.0 | 0.00 | 0.00 | 0.00 | 53 | 1006.3 |
| 20260504035343 | 61 | 172 | 0.0 | 0.0 | 0.00 | 0.00 | 0.00 | 53 | 1006.5 |
| 20260504034826 | 61 | 297 | 0.0 | 0.0 | 0.00 | 0.00 | 0.00 | 53 | 1006.5 |
| 20260504034329 | 61 | 65 | 0.0 | 0.0 | 0.00 | 0.00 | 0.00 | 53 | 1006.6 |
| 20260504033853 | 61 | 227 | 0.0 | 0.0 | 0.00 | 0.00 | 0.00 | 52 | 1006.6 |
| 20260504033336 | 61 | 115 | 0.0 | 0.0 | 0.00 | 0.00 | 0.00 | 51 | 1006.6 |
| 20260504032856 | 61 | 87 | 0.0 | 0.0 | 0.00 | 0.00 | 0.00 | 51 | 1006.6 |
| 20260504032341 | 62 | 204 | 0.0 | 0.0 | 0.00 | 0.00 | 0.00 | 51 | 1006.6 |
| 20260504031824 | 62 | 157 | 0.0 | 0.0 | 0.00 | 0.00 | 0.00 | 51 | 1006.6 |
| 20260504031328 | 62 | 209 | 0.0 | 0.0 | 0.00 | 0.00 | 0.00 | 50 | 1006.6 |
| 20260504030832 | 62 | 34 | 0.0 | 0.0 | 0.00 | 0.00 | 0.00 | 50 | 1006.6 |
| 20260504030335 | 62 | 136 | 0.0 | 0.0 | 0.00 | 0.00 | 0.00 | 51 | 1006.4 |
| 20260504025838 | 62 | 202 | 0.0 | 0.0 | 0.00 | 0.00 | 0.00 | 49 | 1006.4 |
| 20260504025322 | 63 | 97 | 0.0 | 0.0 | 0.00 | 0.00 | 0.00 | 50 | 1006.4 |
| 20260504024825 | 63 | 293 | 0.0 | 0.0 | 0.00 | 0.00 | 0.00 | 49 | 1006.4 |
| 20260504024351 | 63 | 98 | 0.0 | 0.0 | 0.00 | 0.00 | 0.00 | 48 | 1006.3 |
| 20260504023830 | 63 | 206 | 0.0 | 0.0 | 0.00 | 0.00 | 0.00 | 48 | 1006.3 |
| 20260504023329 | 63 | 174 | 0.0 | 0.0 | 0.00 | 0.00 | 0.00 | 48 | 1006.3 |
| 20260504022830 | 64 | 130 | 0.0 | 0.0 | 0.00 | 0.00 | 0.00 | 47 | 1006.2 |
| 20260504022354 | 64 | 121 | 0.0 | 0.0 | 0.00 | 0.00 | 0.00 | 47 | 1006.2 |
| 20260504021835 | 64 | 168 | 0.0 | 0.0 | 0.00 | 0.00 | 0.00 | 46 | 1006.1 |
| 20260504021317 | 64 | 86 | 0.0 | 0.0 | 0.00 | 0.00 | 0.00 | 46 | 1006.2 |
| 20260504020843 | 65 | 76 | 0.0 | 0.0 | 0.00 | 0.00 | 0.00 | 45 | 1006.1 |
| 20260504020326 | 65 | 115 | 0.0 | 0.0 | 0.00 | 0.00 | 0.00 | 45 | 1006.1 |
| 20260504015828 | 65 | 226 | 0.0 | 0.0 | 0.00 | 0.00 | 0.00 | 44 | 1006.1 |
| 20260504015331 | 66 | 226 | 0.0 | 0.0 | 0.00 | 0.00 | 0.00 | 44 | 1006.1 |
| 20260504014834 | 66 | 360 | 0.0 | 0.0 | 0.00 | 0.00 | 0.00 | 43 | 1006.0 |
| 20260504014318 | 66 | 97 | 0.0 | 0.0 | 0.00 | 0.00 | 0.00 | 43 | 1006.1 |
| 20260504013843 | 67 | 360 | 0.0 | 0.0 | 0.00 | 0.00 | 0.00 | 43 | 1006.0 |
| 20260504013321 | 67 | 360 | 0.0 | 0.0 | 0.00 | 0.00 | 0.00 | 43 | 1005.9 |
| 20260504012824 | 67 | 360 | 0.0 | 0.0 | 0.00 | 0.00 | 0.00 | 42 | 1005.9 |
| 20260504012327 | 67 | 360 | 0.0 | 0.0 | 0.00 | 0.00 | 0.00 | 43 | 1005.9 |
| 20260504011830 | 68 | 360 | 0.0 | 0.0 | 0.00 | 0.00 | 0.00 | 42 | 1005.7 |
| 20260504011354 | 68 | 360 | 0.0 | 0.0 | 0.00 | 0.00 | 0.00 | 42 | 1005.8 |
| 20260504010836 | 69 | 360 | 0.0 | 0.0 | 0.00 | 0.00 | 0.00 | 41 | 1005.7 |
| 20260504010317 | 69 | 286 | 0.0 | 0.0 | 0.00 | 0.00 | 0.00 | 41 | 1005.6 |
| 20260504005820 | 69 | 78 | 0.0 | 0.0 | 0.00 | 0.00 | 0.00 | 40 | 1005.6 |
| 20260504005345 | 70 | 163 | 0.0 | 0.0 | 0.00 | 0.00 | 0.00 | 40 | 1005.6 |
| 20260504004828 | 70 | 34 | 0.0 | 0.0 | 0.00 | 0.00 | 0.00 | 40 | 1005.5 |